SCP
5 3 2 1 1 2 3 4 4 2 1 0 0 1 1 1 1 1 1 1 1 0 0 1 1 1 1 1 1 1 1 1 1 0 0 0 0 0 0 0 1 1 1
4 3 2 1 1 2 3 4 4 2 1 1 1 1 1 1 1 1 1 1 1 1 1 1 1 1 1 1 1 1 1 1 1 1 1 1 1 1 1 1 1 1 1
3 2 2 1 2 3 4 4 3 2 1 1 1 1 1 1 1 1 1 1 1 1 1 1 1 1 1 1 1 1 1 1 1 1 1 1 1 1 1 1 1 1 1
2 2 2 2 2 3 4 3 2 1 1 1 1 1 1 1 1 1 1 1 1 1 1 1 1 1 1 1 1 1 1 1 1 1 1 1 1 2 2 2 1 1 1
2 2 3 3 3 3 3 2 2 1 1 1 1 1 1 1 1 1 1 1 1 1 1 1 1 1 1 1 1 1 1 1 1 1 1 2 2 2 2 1 1 1 1
2 2 3 4 4 4 3 2 1 1 1 1 1 1 1 1 1 1 1 1 2 2 2 2 2 1 1 1 1 1 1 1 1 1 2 2 2 1 1 1 0 0 0
2 3 4 5 5 4 3 2 2 1 1 1 2 2 2 2 2 2 2 2 2 2 2 2 2 2 2 1 1 1 1 1 1 1 1 1 1 1 1 0 0 0 0
2 3 4 5 5 5 4 3 2 2 1 2 2 2 2 2 2 2 2 2 2 3 3 3 3 2 2 2 1 1 1 1 1 1 1 1 1 1 1 0 0 0 0
2 2 4 4 5 5 4 3 2 2 2 2 2 2 2 3 3 3 3 3 3 3 3 3 3 3 2 2 1 1 1 1 1 1 1 1 1 1 1 1 1 0 0
2 2 3 3 3 3 3 2 2 2 2 2 3 3 3 3 3 3 3 3 3 4 4 4 4 3 2 2 2 1 1 1 1 1 1 1 1 1 1 1 1 1 1
2 2 2 2 2 2 2 2 2 2 3 3 3 3 3 3 3 3 2 3 3 3 4 5 4 4 3 2 2 2 2 1 1 1 1 1 1 1 1 1 1 1 1
2 2 2 2 2 2 2 2 3 3 3 3 3 3 3 3 3 3 2 2 2 2 3 4 4 4 3 3 3 3 2 1 1 1 1 1 1 2 2 2 1 1 1
2 2 3 3 2 2 2 3 3 3 3 3 4 4 4 4 3 3 2 2 2 2 3 3 3 3 2 2 2 2 2 1 1 1 1 1 1 2 2 2 1 1 1
2 2 3 3 2 2 2 2 3 3 4 4 4 5 5 4 4 3 3 2 2 2 2 2 2 2 1 1 1 1 1 1 1 1 1 1 1 2 2 2 1 1 1
2 2 2 2 2 2 2 2 3 4 4 4 5 5 6 6 5 4 3 3 2 2 2 1 1 1 1 1 1 1 1 1 1 1 1 1 1 2 2 2 1 1 1
1 1 2 2 1 1 2 3 4 5 5 5 5 6 7 7 6 5 4 3 2 2 1 1 1 2 2 1 1 1 1 1 2 2 2 2 1 1 1 1 1 1 1
1 1 2 2 2 2 2 3 4 5 5 6 6 7 8 8 7 6 5 3 3 2 2 2 2 2 2 2 1 1 1 1 2 2 2 2 2 1 1 1 1 1 1
2 2 2 2 2 2 2 4 5 5 6 6 7 7 8 8 8 7 6 5 4 3 3 3 3 3 3 2 1 1 1 1 2 2 2 3 2 2 1 1 1 1 1
3 3 3 3 3 3 3 4 5 6 6 6 6 7 7 7 7 7 7 8 6 5 4 4 4 4 3 2 1 1 1 1 2 2 3 3 3 2 1 1 1 1 1
4 4 4 4 5 5 4 4 5 6 6 6 6 6 5 5 5 5 7 7 6 4 4 4 4 4 3 2 1 1 1 2 2 2 3 3 3 2 1 1 1 1 1
4 4 4 4 6 8 9 8 8 6 6 5 5 5 4 4 4 5 5 5 4 3 3 3 3 3 3 2 1 1 1 2 3 3 3 3 2 1 1 1 1 1 1
4 5 5 4 6 10 13 14 12 9 6 5 5 4 4 4 5 5 6 5 3 3 2 2 2 2 2 2 1 0 1 2 3 3 2 2 1 0 0 1 1 1 1
3 5 6 5 5 7 11 13 12 9 7 6 5 4 4 4 5 5 5 5 4 3 2 2 1 1 1 1 1 0 0 1 2 2 1 1 0 0 0 0 1 1 1
2 4 6 6 5 5 5 6 7 6 6 6 5 4 4 4 3 3 3 3 3 2 2 2 1 1 1 1 0 0 0 0 0 0 0 0 0 0 1 1 1 1 2
2 4 6 7 6 5 4 4 4 4 5 5 5 5 4 3 3 2 2 2 2 1 1 1 1 0 0 0 0 0 0 0 0 0 0 0 0 1 2 3 3 2 2
1 3 6 8 7 6 6 5 5 5 5 5 5 5 4 3 3 2 1 1 1 1 0 0 0 0 0 0 0 0 0 0 0 0 0 0 1 1 3 4 4 3 3
Wind_Speed
4 3 3 3 3 3 4 4 4 3 3 2 2 1 1 1 1 1 1 1 1 1 2 1 1 1 1 1 2 1 1 1 1 1 2 2 2 1 1 1 1 1 1
3 4 3 3 4 4 4 4 4 4 3 3 2 2 1 1 1 1 1 1 1 1 2 2 1 1 1 1 1 1 1 0 1 1 1 2 3 2 2 1 1 1 1
7 5 5 4 4 5 6 5 5 4 4 3 2 1 1 1 1 1 1 1 1 1 1 2 2 1 2 1 1 2 2 1 0 1 2 1 1 2 2 1 2 2 2
5 5 5 5 6 5 4 4 4 4 3 4 3 3 2 2 2 1 1 1 0 1 2 2 2 2 2 2 2 2 2 2 1 0 0 1 2 1 1 1 1 1 1
6 6 7 6 5 5 4 4 4 3 3 3 4 3 2 2 0 0 0 1 0 1 1 2 2 2 2 2 2 1 2 2 2 1 1 0 0 1 1 2 1 1 1
6 6 5 4 4 4 4 4 4 3 3 3 3 4 3 2 2 1 0 0 0 0 0 1 1 2 2 2 2 2 2 2 2 1 1 1 1 1 2 2 1 1 1
6 6 6 6 6 5 5 4 5 4 3 3 3 3 3 3 3 2 2 1 1 1 1 1 1 1 1 2 2 2 2 2 2 2 2 2 2 1 2 2 1 1 1
6 7 7 7 6 6 5 5 5 5 4 4 4 3 3 3 2 2 2 2 2 2 1 1 1 1 1 1 2 2 2 2 2 2 2 1 2 2 2 2 2 1 1
7 7 6 6 6 6 6 6 6 5 4 4 4 3 3 3 3 2 2 1 1 1 1 1 1 1 1 2 2 1 2 2 2 2 2 2 2 2 2 2 2 2 2
5 5 5 5 5 5 4 4 5 5 4 3 4 3 3 3 3 2 2 2 1 1 1 1 1 1 1 1 2 1 1 2 2 2 2 2 2 1 1 1 1 2 2
6 5 5 5 5 4 4 4 4 3 3 4 3 3 3 3 3 3 3 2 2 2 2 1 1 1 1 1 1 2 2 2 2 2 2 3 2 1 1 1 1 1 2
4 4 4 4 4 4 4 5 4 4 4 4 3 3 2 2 2 3 3 2 2 1 2 1 1 2 2 2 2 2 2 3 3 3 3 3 2 2 2 2 2 2 2
3 3 3 4 4 4 4 4 4 4 3 3 3 3 3 3 3 3 3 2 2 2 1 1 2 2 2 2 2 3 3 3 4 4 4 3 3 3 2 3 2 2 2
4 4 4 4 4 4 4 4 4 4 3 3 3 3 3 3 3 3 3 3 2 2 2 2 2 2 2 2 2 2 3 3 3 4 4 4 5 5 4 3 4 3 2
3 4 4 3 3 3 3 3 4 4 4 4 4 4 3 2 2 3 3 3 3 3 2 2 2 2 2 2 2 2 3 3 3 3 4 5 5 6 5 4 4 4 3
5 5 4 4 4 4 4 3 3 3 4 4 4 3 3 2 3 3 2 2 3 3 2 3 3 3 3 3 3 3 3 3 3 4 4 4 5 6 6 7 7 7 6
5 5 5 5 5 5 5 5 4 3 3 4 3 3 3 3 3 3 2 3 3 3 3 3 3 4 4 5 4 4 3 3 4 4 4 4 4 5 4 5 6 7 8
5 5 5 5 4 4 4 4 4 4 4 4 3 3 3 3 2 2 3 3 2 3 3 4 4 4 4 5 5 5 3 3 4 5 5 5 5 5 5 4 4 5 6
5 5 6 5 5 5 4 4 4 4 4 4 4 3 3 3 3 3 3 3 2 3 3 3 3 3 4 5 5 4 2 3 5 5 5 5 5 6 6 5 5 4 4
3 3 4 4 4 4 5 5 4 4 4 5 4 4 3 4 4 4 3 2 3 3 3 3 3 4 5 6 6 4 2 3 4 4 4 5 5 5 6 5 5 5 4
3 3 4 5 5 5 5 5 4 5 5 4 3 3 3 4 4 3 2 2 2 3 3 4 3 4 5 7 7 6 3 4 3 3 4 3 5 6 6 6 5 6 5
3 4 4 4 3 5 6 5 5 5 3 3 3 3 3 3 3 2 2 2 2 2 3 3 3 3 4 5 6 6 6 5 4 4 4 3 4 5 6 5 5 5 4
3 4 5 4 3 4 6 6 6 4 3 3 3 3 3 3 2 3 3 2 2 2 2 2 3 3 3 3 5 5 5 5 3 3 4 4 3 3 3 5 5 4 4
3 3 4 4 4 4 5 5 4 4 4 4 3 3 2 2 2 2 2 3 3 3 3 3 3 3 3 2 2 2 2 2 2 2 2 2 1 1 2 2 2 3 3
3 4 5 6 6 5 5 4 4 4 4 3 3 2 2 2 2 2 3 4 4 4 5 4 4 4 4 4 4 3 2 2 2 1 0 0 0 0 1 1 1 2 2
3 4 5 5 5 5 5 4 4 5 4 3 3 3 2 2 2 2 2 3 5 6 7 7 6 4 6 6 5 4 4 3 3 2 1 1 1 2 2 2 2 2 2
Wind_Direction
207 181 182 177 172 176 178 180 178 176 152 143 155 159 200 242 265 250 242 229 198 172 158 169 164 155 154 163 151 138 115 72 67 55 8 357 2 10 0 355 356 338 315
197 188 180 174 180 185 189 185 183 177 173 178 172 167 171 202 216 256 283 241 207 193 173 168 170 171 155 137 138 134 128 116 99 105 62 358 350 357 10 16 26 20 43
200 195 190 189 189 192 193 191 186 180 180 169 136 107 69 23 10 336 303 281 203 185 169 163 161 167 157 163 170 160 158 175 179 136 151 155 242 311 341 8 23 20 30
197 195 194 194 196 197 185 177 174 173 171 157 155 161 171 202 231 235 248 288 165 170 165 162 159 158 150 164 193 163 164 162 188 241 227 191 178 191 313 338 2 8 5
195 200 199 197 193 181 169 164 155 155 155 152 160 160 174 196 191 126 331 342 19 164 165 159 149 151 155 166 170 158 160 166 176 184 186 172 149 199 204 271 315 341 320
196 198 195 183 182 172 166 158 150 156 150 150 153 158 167 165 138 135 194 302 291 295 219 174 170 177 178 184 187 183 174 179 178 179 169 171 178 197 197 223 258 283 294
193 191 185 184 185 180 176 169 163 168 164 162 171 177 178 176 184 197 206 217 220 238 252 220 195 196 199 193 181 174 187 193 188 196 200 200 211 191 183 185 207 245 288
192 192 191 187 186 182 179 174 173 176 176 176 184 185 181 184 200 207 207 211 217 228 230 206 194 194 199 200 173 173 195 191 201 211 201 204 224 207 195 186 174 207 278
193 192 187 184 186 185 185 183 179 182 185 188 185 185 184 184 198 208 212 223 226 217 196 200 208 214 205 201 184 188 200 188 202 216 214 218 228 211 215 201 188 182 215
190 188 184 182 185 184 179 176 178 185 188 191 199 195 200 198 196 194 211 220 219 209 183 216 219 221 220 202 188 190 188 188 215 209 205 228 234 222 209 198 202 198 194
192 186 180 179 176 166 164 176 184 184 190 198 202 198 204 203 189 191 210 215 213 202 200 209 223 232 238 211 190 210 196 203 225 224 211 226 220 208 208 182 182 192 180
189 177 169 162 165 172 178 184 189 196 204 198 191 204 207 201 197 206 213 206 212 226 221 208 218 233 232 215 204 217 211 211 225 232 223 230 216 215 211 184 196 208 203
164 160 167 173 179 183 188 187 188 199 201 181 184 197 205 201 211 217 216 206 203 216 219 207 218 241 247 235 222 211 217 221 227 227 222 224 207 223 220 202 203 211 206
172 176 185 191 190 188 184 181 184 181 175 176 185 207 217 211 217 223 219 213 207 210 220 227 232 237 241 241 233 220 225 233 238 235 229 226 215 217 216 211 208 199 191
185 191 193 197 187 180 177 169 170 172 175 180 199 218 224 216 216 227 232 222 218 224 219 227 251 258 248 243 235 239 244 240 248 250 242 235 223 219 214 210 201 191 188
202 197 192 187 183 181 174 168 176 180 172 183 207 219 218 218 224 234 238 237 239 236 218 224 235 247 255 264 248 237 253 253 245 252 256 247 234 229 223 219 206 194 192
206 202 201 197 193 189 178 181 190 177 173 191 208 211 210 220 234 235 233 242 242 240 237 235 231 241 251 256 256 247 240 250 250 244 245 251 245 229 224 224 223 220 218
211 209 201 196 195 185 180 179 171 173 184 199 211 213 210 223 232 223 230 238 237 236 240 241 237 242 254 253 257 253 245 255 259 249 240 240 247 234 218 220 225 229 229
209 206 198 193 183 184 183 170 176 179 186 202 214 220 218 222 225 230 238 232 226 238 239 243 240 246 261 255 249 238 243 260 267 260 246 240 242 238 218 210 223 235 241
209 198 184 171 177 190 174 169 184 187 203 212 217 214 209 213 221 228 233 229 217 237 244 246 236 237 254 257 247 231 226 253 268 271 260 245 240 238 216 210 211 222 230
204 185 176 182 192 182 170 180 192 209 217 213 212 216 212 215 220 223 226 229 228 230 237 247 251 243 245 251 249 238 224 232 250 262 264 255 240 232 221 214 215 218 210
206 184 182 197 194 178 173 188 210 219 209 196 200 216 222 223 215 205 220 218 221 237 252 262 277 267 257 248 250 244 237 232 232 246 254 251 239 231 225 218 220 209 197
215 198 187 194 204 194 185 197 215 203 195 195 207 217 220 224 214 204 213 216 216 231 251 254 266 274 266 251 242 242 239 233 233 244 252 256 251 241 227 222 214 197 194
224 206 186 193 213 214 208 211 206 192 190 203 220 221 212 224 232 220 211 212 217 227 239 246 259 270 270 259 250 250 248 245 244 261 276 283 278 244 225 217 207 203 201
231 207 203 210 220 219 220 218 194 181 192 206 219 222 219 214 224 230 226 223 225 218 223 234 235 246 259 253 242 236 238 233 233 232 304 320 306 291 248 233 212 195 191
233 221 221 222 227 221 224 218 196 188 190 204 218 220 219 219 219 226 260 250 238 240 236 233 232 243 246 253 251 246 239 226 196 158 209 239 241 244 242 235 228 208 207